[[{"header":{"parameterUnit":"m.s-1","parameterCategory":1,"la1":30.2991,"la2":30.254,"lo1":-89.0895,"lo2":-89.0444,"dy":0.0017,"dx":0.0017,"nx":28,"ny":28,"refTime":"2024-05-22T03:00:00:Z","depth":0,"parameterNumber":2,"parameterNumberName":"U-component_of_WINDS"},"data":[0,0,0,0,0,0,0,0,0,0,0,0,0,0,0,0,0,0,0,0,0,0,0,0,0,0,0,0,0,0,0,0,0,0,0,0,0,0,0,0,0,0,0,0,0,0,0,0,0,0,0,0,0,0,0,0,0,0,-1.0402,-1.0402,0,-1.0436,-1.0436,-1.0437,-1.044,-1.044,-1.0439,-1.0439,-1.0474,-1.0475,-1.0477,0,0,0,0,0,0,0,0,0,0,0,0,0,-1.0341,-1.0342,-1.0402,-1.0402,-1.0403,-1.0436,-1.0436,-1.0437,-1.044,-1.044,-1.0439,-1.0439,-1.0474,-1.0475,-1.0477,0,0,0,0,0,0,0,0,0,0,0,0,0,-1.037,-1.0342,-1.0402,-1.0408,-1.0409,-1.0436,-1.0436,-1.0437,-1.044,-1.044,-1.0439,-1.0438,-1.0473,-1.0475,-1.0477,-1.05,0,0,-1.0483,-1.0484,0,0,0,0,0,0,0,0,-1.0369,-1.0373,-1.0407,-1.0408,-1.0409,-1.0433,-1.0428,-1.0458,-1.044,-1.0428,-1.0439,-1.0438,-1.0461,-1.0464,-1.0471,-1.0501,-1.0503,-1.0483,-1.0484,-1.0485,-1.0485,0,0,0,0,0,0,0,-1.0367,-1.0371,-1.0415,-1.0407,-1.0409,-1.041,-1.0414,-1.0434,-1.0447,-1.0429,-1.043,-1.0434,-1.0461,-1.047,-1.0472,-1.0503,-1.0483,-1.0485,-1.0486,-1.0487,-1.0555,-1.0556,0,0,0,0,0,0,-1.0363,-1.037,-1.0414,-1.0416,-1.0387,-1.0412,-1.0416,-1.0426,-1.0447,-1.045,-1.0434,-1.0434,-1.0467,-1.047,-1.0474,-1.0502,-1.0485,-1.0487,-1.0488,-1.0554,-1.0555,-1.0556,0,0,0,0,0,0,-1.0362,-1.0367,-1.0413,-1.0393,-1.0399,-1.0413,-1.0425,-1.0427,-1.0435,-1.0451,-1.0453,-1.044,-1.0466,-1.0471,-1.0493,-1.0503,-1.0488,-1.0489,-1.0554,-1.0555,-1.0556,-1.0559,0,0,0,0,0,0,-1.036,-1.0367,-1.0375,-1.0393,-1.04,-1.0432,-1.0425,-1.0428,-1.0438,-1.0438,-1.0457,-1.0459,-1.0466,-1.0491,-1.0495,-1.0506,-1.0491,-1.0553,-1.0554,-1.0555,-1.0558,-1.056,-1.0562,0,0,0,0,0,-1.0358,-1.0374,-1.0375,-1.0381,-1.041,-1.0432,-1.0436,-1.0444,-1.0439,-1.0448,-1.0458,-1.0459,-1.0502,-1.0493,-1.0498,-1.0509,-1.0552,-1.0554,-1.0555,-1.0557,-1.056,-1.0562,0,0,0,0,0,0,-1.0356,-1.0377,-1.0378,-1.0401,-1.0415,-1.0433,-1.0444,-1.0446,-1.0461,-1.046,-1.047,-1.0474,-1.0496,-1.0505,-1.0495,-1.0533,-1.0527,-1.0529,-1.0526,-1.0529,-1.0531,-1.0528,-1.0492,0,0,0,0,0,-1.0359,-1.0374,-1.0391,-1.041,-1.0417,-1.0429,-1.0439,-1.0444,-1.0459,-1.0464,-1.0476,-1.0491,-1.0508,-1.0519,-1.0535,-1.056,-1.0565,-1.057,-1.0572,-1.0574,-1.0576,-1.0591,-1.0594,-1.0561,-1.0561,-1.0561,0,0,-1.0364,-1.0377,-1.0386,-1.041,-1.0421,-1.0438,-1.0434,-1.0451,-1.0464,-1.0467,-1.0489,-1.0499,-1.0516,-1.054,-1.0551,-1.0548,-1.0586,-1.0576,-1.0577,-1.0578,-1.0593,-1.0596,-1.0598,-1.0562,-1.0562,-1.0562,0,0,-1.0381,-1.0392,-1.0409,-1.0421,-1.0439,-1.0447,-1.0451,-1.0469,-1.0476,-1.0498,-1.0502,-1.0517,-1.0546,-1.0558,-1.0568,-1.0593,-1.0594,-1.0598,-1.0607,-1.0622,-1.0624,-1.0627,-1.0636,-1.0639,-1.06,-1.06,-1.06,0,-1.0385,-1.0409,-1.0417,-1.0435,-1.0446,-1.0451,-1.0468,-1.048,-1.0502,-1.0509,-1.0506,-1.0543,-1.0555,-1.0583,-1.0589,-1.0597,-1.0602,-1.0595,-1.0623,-1.0626,-1.0628,-1.0637,-1.064,-1.06,-1.06,-1.06,-1.06,0,-1.0413,-1.0431,-1.0442,-1.0464,-1.0476,-1.0494,-1.0506,-1.0517,-1.0522,-1.0531,-1.0555,-1.0569,-1.0589,-1.0596,-1.0601,-1.0625,-1.0623,-1.0621,-1.0615,-1.0631,-1.064,-1.0643,-1.0601,-1.0601,-1.0601,-1.0601,0,0,-1.0429,-1.0456,-1.046,-1.0471,-1.0492,-1.0505,-1.0524,-1.0544,-1.0554,-1.057,-1.0586,-1.0612,-1.0611,-1.0622,-1.0628,-1.0641,-1.066,-1.0638,-1.0638,-1.0642,-1.0689,-1.069,-1.0694,-1.0662,-1.0662,-1.0663,-1.0688,0,-1.0449,-1.0481,-1.049,-1.0518,-1.0535,-1.0541,-1.0557,-1.0572,-1.0581,-1.0597,-1.0608,-1.0626,-1.0623,-1.0631,-1.0643,-1.0655,-1.067,-1.0653,-1.0677,-1.0678,-1.0673,-1.0699,-1.0699,-1.0722,-1.0691,-1.0692,-1.0692,0,-1.0476,-1.0492,-1.0522,-1.0542,-1.0549,-1.0564,-1.0584,-1.0599,-1.0616,-1.0623,-1.0637,-1.0642,-1.0662,-1.0655,-1.0684,-1.0673,-1.0684,-1.0691,-1.0692,-1.0695,-1.0686,-1.0702,-1.073,-1.0733,-1.0698,-1.0697,-1.0697,0,-1.0485,-1.0515,-1.0537,-1.0545,-1.0569,-1.0579,-1.059,-1.0607,-1.0619,-1.0637,-1.0645,-1.0665,-1.0675,-1.0691,-1.0702,-1.0696,-1.0731,-1.0724,-1.0737,-1.0736,-1.0743,-1.0743,-1.0773,-1.075,-1.075,-1.075,-1.075,0,-1.0506,-1.0524,-1.0541,-1.0555,-1.0576,-1.0586,-1.0607,-1.0618,-1.0634,-1.065,-1.0656,-1.0671,-1.0685,-1.0702,-1.0711,-1.0735,-1.0739,-1.0745,-1.0747,-1.0745,-1.0744,-1.0752,-1.075,-1.0751,-1.0751,-1.0751,-1.075,0,-1.0519,-1.0531,-1.0556,-1.0577,-1.0582,-1.0597,-1.0615,-1.0629,-1.064,-1.066,-1.0666,-1.0682,-1.0703,-1.0716,-1.0743,-1.0749,-1.0775,-1.0776,-1.0769,-1.0769,-1.0782,-1.0781,-1.0818,-1.0824,-1.0797,-1.0797,-1.0797,0,-1.0531,-1.0545,-1.0568,-1.058,-1.059,-1.0609,-1.0621,-1.0633,-1.0646,-1.0668,-1.068,-1.0701,-1.0719,-1.0753,-1.0767,-1.0788,-1.079,-1.0802,-1.0793,-1.0791,-1.0791,-1.079,-1.0792,-1.0803,-1.0804,-1.0804,-1.0804,0,-1.0552,-1.0558,-1.0576,-1.0596,-1.0611,-1.0627,-1.0644,-1.0653,-1.0668,-1.0683,-1.0704,-1.0718,-1.0746,-1.0768,-1.079,-1.0802,-1.0806,-1.0807,-1.0811,-1.0808,-1.0804,-1.0807,-1.0773,-1.0806,-1.0806,-1.0806,-1.0805,-1.0805,-1.0566,-1.0579,-1.0598,-1.0617,-1.0631,-1.0647,-1.0662,-1.0674,-1.0693,-1.0716,-1.0722,-1.0746,-1.0765,-1.0795,-1.0808,-1.0826,-1.0825,-1.083,-1.0832,-1.0833,-1.0834,-1.0801,-1.083,-1.083,-1.083,-1.083,-1.083,0,-1.0587,-1.06,-1.0618,-1.0642,-1.0658,-1.066,-1.0679,-1.0693,-1.0713,-1.073,-1.0748,-1.0774,-1.0796,-1.0813,-1.0835,-1.0847,-1.085,-1.0853,-1.0852,-1.0855,-1.0834,-1.0828,-1.085,-1.085,-1.085,-1.085,-1.085,-1.085,-1.06,-1.0623,-1.0632,-1.0662,-1.0675,-1.0698,-1.0709,-1.0724,-1.0738,-1.0766,-1.0784,-1.0796,-1.0813,-1.0837,-1.0858,-1.0862,-1.0871,-1.0873,-1.0878,-1.0858,-1.0856,-1.0854,-1.0849,-1.0875,-1.0875,-1.0898,-1.0898,-1.0898]},{"header":{"parameterUnit":"m.s-1","parameterCategory":1,"la1":30.2991,"la2":30.254,"lo1":-89.0895,"lo2":-89.0444,"dy":0.0017,"dx":0.0017,"nx":28,"ny":28,"refTime":"2024-05-22T03:00:00:Z","depth":0,"parameterNumber":3,"parameterNumberName":"V-component_of_WINDS"},"data":[0,0,0,0,0,0,0,0,0,0,0,0,0,0,0,0,0,0,0,0,0,0,0,0,0,0,0,0,0,0,0,0,0,0,0,0,0,0,0,0,0,0,0,0,0,0,0,0,0,0,0,0,0,0,0,0,0,0,3.0873,3.0873,0,3.088,3.088,3.088,3.0838,3.0836,3.0835,3.0834,3.0839,3.0841,3.0842,0,0,0,0,0,0,0,0,0,0,0,0,0,3.0821,3.0823,3.0872,3.0873,3.0873,3.088,3.088,3.088,3.0838,3.0836,3.0835,3.0834,3.0839,3.0841,3.0842,0,0,0,0,0,0,0,0,0,0,0,0,0,3.0838,3.0823,3.0872,3.0853,3.0851,3.088,3.088,3.088,3.0838,3.0836,3.0835,3.0833,3.0839,3.084,3.0842,3.089,0,0,3.0848,3.0849,0,0,0,0,0,0,0,0,3.0837,3.0839,3.0855,3.0854,3.0852,3.0856,3.0864,3.0883,3.0839,3.0843,3.0834,3.0832,3.0846,3.0847,3.0853,3.089,3.089,3.0848,3.0849,3.085,3.0851,0,0,0,0,0,0,0,3.0836,3.0839,3.0875,3.0856,3.0854,3.0843,3.0843,3.0867,3.0854,3.0842,3.0839,3.0841,3.0845,3.0851,3.0852,3.089,3.0848,3.085,3.0851,3.0852,3.0968,3.097,0,0,0,0,0,0,3.0837,3.0838,3.0875,3.0875,3.084,3.0845,3.0846,3.0856,3.0854,3.0852,3.0842,3.0839,3.0849,3.085,3.0852,3.0909,3.085,3.0852,3.0853,3.0966,3.0968,3.097,0,0,0,0,0,0,3.0836,3.0841,3.0875,3.0856,3.086,3.0848,3.0861,3.0858,3.0863,3.0854,3.0852,3.0851,3.0847,3.085,3.0881,3.0908,3.0853,3.0854,3.0964,3.0967,3.0969,3.1021,0,0,0,0,0,0,3.0835,3.0841,3.0859,3.0857,3.0861,3.0904,3.0862,3.0859,3.0867,3.0862,3.0861,3.0859,3.0846,3.0879,3.0883,3.091,3.0856,3.0961,3.0965,3.0968,3.1017,3.1025,3.1033,0,0,0,0,0,3.0833,3.0873,3.086,3.0865,3.0883,3.0905,3.0908,3.0892,3.0869,3.0887,3.0882,3.0859,3.0904,3.0882,3.0887,3.0915,3.0959,3.0964,3.0968,3.1013,3.1024,3.1033,0,0,0,0,0,0,3.0877,3.0872,3.0858,3.0898,3.0903,3.0898,3.092,3.0903,3.0914,3.0909,3.0888,3.0889,3.0924,3.0922,3.0897,3.0961,3.0928,3.0933,3.0961,3.0971,3.0978,3.0978,3.0857,0,0,0,0,0,3.0892,3.0911,3.0905,3.094,3.0944,3.0932,3.0941,3.0929,3.0932,3.0934,3.093,3.0934,3.0949,3.096,3.0973,3.1016,3.1016,3.1038,3.1046,3.1052,3.1057,3.1081,3.1091,3.0985,3.0985,3.0985,0,0,3.0921,3.0921,3.0934,3.0949,3.0951,3.0972,3.0934,3.0956,3.0971,3.0937,3.0967,3.0964,3.0968,3.1006,3.1022,3.1005,3.1087,3.1058,3.1063,3.1065,3.1087,3.1097,3.1106,3.0988,3.0987,3.0987,0,0,3.0986,3.0988,3.1018,3.1021,3.1026,3.1018,3.1025,3.1024,3.1021,3.1051,3.1027,3.1043,3.1069,3.1073,3.1078,3.1146,3.1126,3.1151,3.1192,3.1216,3.1224,3.1231,3.1256,3.1265,3.1156,3.1156,3.1156,0,3.1022,3.1052,3.1036,3.106,3.1068,3.1039,3.107,3.1074,3.1082,3.1088,3.1069,3.1102,3.1102,3.1141,3.1158,3.1163,3.1171,3.1151,3.1224,3.1231,3.1238,3.1262,3.1271,3.1159,3.1159,3.1158,3.1158,0,3.1097,3.1118,3.1142,3.1152,3.1162,3.119,3.1177,3.119,3.1177,3.1171,3.1202,3.1201,3.1214,3.1222,3.1209,3.126,3.1249,3.1228,3.1194,3.1251,3.1273,3.1282,3.1163,3.1162,3.1161,3.116,0,0,3.1189,3.1191,3.12,3.1205,3.1208,3.1223,3.125,3.1264,3.1275,3.1282,3.1304,3.1327,3.1307,3.1313,3.1301,3.1321,3.1376,3.1297,3.1297,3.1312,3.1433,3.1449,3.146,3.1363,3.1364,3.1366,3.1433,0,3.1253,3.1299,3.1286,3.1332,3.1352,3.1325,3.1348,3.1353,3.1348,3.1364,3.1358,3.1375,3.1348,3.1351,3.137,3.1365,3.14,3.136,3.1383,3.1384,3.1384,3.1471,3.1489,3.1552,3.1441,3.1442,3.1443,0,3.1334,3.1346,3.1394,3.1395,3.1403,3.1424,3.1436,3.1452,3.1456,3.1451,3.1459,3.1442,3.1468,3.1434,3.147,3.1443,3.1452,3.1451,3.1453,3.1455,3.1418,3.1477,3.1572,3.1582,3.1456,3.1455,3.1454,0,3.1398,3.1425,3.1458,3.1463,3.1465,3.148,3.1482,3.1484,3.1494,3.1504,3.151,3.1523,3.153,3.1541,3.1528,3.1505,3.1566,3.1531,3.1563,3.1563,3.1577,3.1577,3.1676,3.1582,3.1581,3.1581,3.1581,0,3.1471,3.1502,3.1487,3.1507,3.1542,3.1525,3.1559,3.1557,3.156,3.158,3.1557,3.1576,3.1557,3.1574,3.1564,3.1596,3.1599,3.1596,3.1593,3.1598,3.1599,3.1604,3.16,3.1584,3.1583,3.1583,3.1582,0,3.1548,3.1539,3.1574,3.1573,3.1574,3.1599,3.1598,3.1617,3.1611,3.1636,3.1641,3.1631,3.165,3.1638,3.1657,3.165,3.1692,3.1682,3.1691,3.1688,3.1721,3.1719,3.1828,3.1842,3.1738,3.1739,3.174,0,3.1596,3.162,3.1622,3.1634,3.1637,3.1657,3.1667,3.1652,3.1663,3.1671,3.1689,3.1706,3.1719,3.175,3.1744,3.1759,3.175,3.1787,3.1752,3.1757,3.1752,3.1751,3.1753,3.1795,3.1796,3.1797,3.1798,0,3.1682,3.1677,3.1693,3.1708,3.1721,3.1732,3.174,3.1751,3.1736,3.175,3.177,3.178,3.18,3.1817,3.183,3.183,3.1812,3.1809,3.1817,3.1823,3.1828,3.1827,3.1711,3.1806,3.1806,3.1805,3.1804,3.1804,3.1747,3.1767,3.1773,3.1791,3.1797,3.1806,3.1824,3.1821,3.1837,3.1853,3.1842,3.1866,3.187,3.1885,3.1888,3.1906,3.1891,3.1903,3.1906,3.1909,3.1915,3.1825,3.1908,3.1908,3.1908,3.1907,3.1907,0,3.1833,3.1835,3.1853,3.1867,3.1882,3.1864,3.1873,3.1886,3.1908,3.1914,3.1927,3.195,3.1967,3.1964,3.1979,3.1994,3.1986,3.1999,3.1998,3.1999,3.1927,3.1918,3.2005,3.2005,3.2005,3.2005,3.2005,3.2005,3.1879,3.1913,3.1909,3.1945,3.1947,3.1971,3.1978,3.1986,3.1991,3.2018,3.2032,3.203,3.2032,3.2048,3.2063,3.2061,3.2068,3.2084,3.208,3.2013,3.2003,3.1994,3.1986,3.2086,3.2086,3.215,3.2151,3.2151]}]]